owner,sensor,date,latitude,longitude,vertical_datum,wind_speed,wind_to_direction,wind_speed_of_gust,qcFlag 
DISL,ioos:station:DISL:MHPA:1,2017-06-01T00:00:00Z,30.6671,-87.9365,8.5,5.47,151.0,-999.0,'1111122,1111122,1111122' 
DISL,ioos:station:DISL:MHPA:1,2017-06-01T00:30:00Z,30.6671,-87.9365,8.5,3.3,141.0,-999.0,'1111122,1111122,1111122' 
DISL,ioos:station:DISL:MHPA:1,2017-06-01T01:00:00Z,30.6671,-87.9365,8.5,3.63,154.1,-999.0,'1111122,1111122,1111122' 
DISL,ioos:station:DISL:MHPA:1,2017-06-01T01:30:00Z,30.6671,-87.9365,8.5,4.79,168.3,-999.0,'1111122,1111122,1111122' 
DISL,ioos:station:DISL:MHPA:1,2017-06-01T02:00:00Z,30.6671,-87.9365,8.5,2.5,127.2,-999.0,'1111122,1111122,1111122' 
DISL,ioos:station:DISL:MHPA:1,2017-06-01T02:30:00Z,30.6671,-87.9365,8.5,2.45,129.5,-999.0,'1111122,1111122,1111122' 
DISL,ioos:station:DISL:MHPA:1,2017-06-01T03:00:00Z,30.6671,-87.9365,8.5,1.41,153.6,-999.0,'1111122,1111122,1111122' 
DISL,ioos:station:DISL:MHPA:1,2017-06-01T03:30:00Z,30.6671,-87.9365,8.5,1.75,242.7,-999.0,'1111122,1111122,1111122' 
DISL,ioos:station:DISL:MHPA:1,2017-06-01T04:00:00Z,30.6671,-87.9365,8.5,2.33,24.93,-999.0,'1111122,1111122,1111122' 
DISL,ioos:station:DISL:MHPA:1,2017-06-01T04:30:00Z,30.6671,-87.9365,8.5,1.86,49.61,-999.0,'1111122,1111122,1111122' 
DISL,ioos:station:DISL:MHPA:1,2017-06-01T05:00:00Z,30.6671,-87.9365,8.5,0.6,48.4,-999.0,'1111122,1111122,1111122' 
DISL,ioos:station:DISL:MHPA:1,2017-06-01T05:30:00Z,30.6671,-87.9365,8.5,1.15,71.83,-999.0,'1111122,1111122,1111122' 
DISL,ioos:station:DISL:MHPA:1,2017-06-01T06:00:00Z,30.6671,-87.9365,8.5,1.34,62.87,-999.0,'1111122,1111122,1111122' 
DISL,ioos:station:DISL:MHPA:1,2017-06-01T06:30:00Z,30.6671,-87.9365,8.5,1.34,75.19,-999.0,'1111122,1111122,1111122' 
DISL,ioos:station:DISL:MHPA:1,2017-06-01T07:00:00Z,30.6671,-87.9365,8.5,1.04,66.71,-999.0,'1111122,1111122,1111122' 
DISL,ioos:station:DISL:MHPA:1,2017-06-01T07:30:00Z,30.6671,-87.9365,8.5,1.16,70.9,-999.0,'1111122,1111122,1111122' 
DISL,ioos:station:DISL:MHPA:1,2017-06-01T08:00:00Z,30.6671,-87.9365,8.5,0.83,58.61,-999.0,'1111122,1111122,1111122' 
DISL,ioos:station:DISL:MHPA:1,2017-06-01T08:30:00Z,30.6671,-87.9365,8.5,1.19,93.6,-999.0,'1111122,1111122,1111122' 
DISL,ioos:station:DISL:MHPA:1,2017-06-01T09:00:00Z,30.6671,-87.9365,8.5,1.12,75.66,-999.0,'1111122,1111122,1111122' 
DISL,ioos:station:DISL:MHPA:1,2017-06-01T09:30:00Z,30.6671,-87.9365,8.5,1.13,19.33,-999.0,'1111122,1111122,1111122' 
DISL,ioos:station:DISL:MHPA:1,2017-06-01T10:00:00Z,30.6671,-87.9365,8.5,0.65,50.1,-999.0,'1111122,1111122,1111122' 
DISL,ioos:station:DISL:MHPA:1,2017-06-01T10:30:00Z,30.6671,-87.9365,8.5,0.94,0.925,-999.0,'1111122,1111122,1111122' 
DISL,ioos:station:DISL:MHPA:1,2017-06-01T11:00:00Z,30.6671,-87.9365,8.5,0.83,86.0,-999.0,'1111122,1111122,1111122' 
DISL,ioos:station:DISL:MHPA:1,2017-06-01T11:30:00Z,30.6671,-87.9365,8.5,1.05,77.92,-999.0,'1111122,1111122,1111122' 
DISL,ioos:station:DISL:MHPA:1,2017-06-01T12:00:00Z,30.6671,-87.9365,8.5,0.76,7.674,-999.0,'1111122,1111122,1111122' 
DISL,ioos:station:DISL:MHPA:1,2017-06-01T12:30:00Z,30.6671,-87.9365,8.5,1.08,348.8,-999.0,'1111122,1111122,1111122' 
DISL,ioos:station:DISL:MHPA:1,2017-06-01T13:00:00Z,30.6671,-87.9365,8.5,0.8,336.4,-999.0,'1111122,1111122,1111122' 
DISL,ioos:station:DISL:MHPA:1,2017-06-01T13:30:00Z,30.6671,-87.9365,8.5,0.08,119.1,-999.0,'1111122,1111122,1111122' 
DISL,ioos:station:DISL:MHPA:1,2017-06-01T14:00:00Z,30.6671,-87.9365,8.5,0.93,298.9,-999.0,'1111122,1111122,1111122' 
DISL,ioos:station:DISL:MHPA:1,2017-06-01T14:30:00Z,30.6671,-87.9365,8.5,1.11,324.6,-999.0,'1111122,1111122,1111122' 
DISL,ioos:station:DISL:MHPA:1,2017-06-01T15:00:00Z,30.6671,-87.9365,8.5,0.82,283.9,-999.0,'1111122,1111122,1111122' 
DISL,ioos:station:DISL:MHPA:1,2017-06-01T15:30:00Z,30.6671,-87.9365,8.5,0.27,353.5,-999.0,'1111122,1111122,1111122' 
DISL,ioos:station:DISL:MHPA:1,2017-06-01T16:00:00Z,30.6671,-87.9365,8.5,0.71,173.5,-999.0,'1111122,1111122,1111122' 
DISL,ioos:station:DISL:MHPA:1,2017-06-01T16:30:00Z,30.6671,-87.9365,8.5,4.7,139.4,-999.0,'1111122,1111122,1111122' 
DISL,ioos:station:DISL:MHPA:1,2017-06-01T17:00:00Z,30.6671,-87.9365,8.5,3.81,133.1,-999.0,'1111122,1111122,1111122' 
DISL,ioos:station:DISL:MHPA:1,2017-06-01T17:30:00Z,30.6671,-87.9365,8.5,2.44,140.3,-999.0,'1111122,1111122,1111122' 
DISL,ioos:station:DISL:MHPA:1,2017-06-01T18:00:00Z,30.6671,-87.9365,8.5,2.39,175.0,-999.0,'1111122,1111122,1111122' 
DISL,ioos:station:DISL:MHPA:1,2017-06-01T18:30:00Z,30.6671,-87.9365,8.5,1.41,222.5,-999.0,'1111122,1111122,1111122' 
DISL,ioos:station:DISL:MHPA:1,2017-06-01T19:00:00Z,30.6671,-87.9365,8.5,1.57,242.3,-999.0,'1111122,1111122,1111122' 
DISL,ioos:station:DISL:MHPA:1,2017-06-01T19:30:00Z,30.6671,-87.9365,8.5,0.92,252.4,-999.0,'1111122,1111122,1111122' 
DISL,ioos:station:DISL:MHPA:1,2017-06-01T20:00:00Z,30.6671,-87.9365,8.5,0.41,4.671,-999.0,'1111122,1111122,1111122' 
DISL,ioos:station:DISL:MHPA:1,2017-06-01T20:30:00Z,30.6671,-87.9365,8.5,1.5,213.6,-999.0,'1111122,1111122,1111122' 
DISL,ioos:station:DISL:MHPA:1,2017-06-01T21:00:00Z,30.6671,-87.9365,8.5,1.94,203.1,-999.0,'1111122,1111122,1111122' 
DISL,ioos:station:DISL:MHPA:1,2017-06-01T21:30:00Z,30.6671,-87.9365,8.5,1.41,227.1,-999.0,'1111122,1111122,1111122' 
DISL,ioos:station:DISL:MHPA:1,2017-06-01T22:00:00Z,30.6671,-87.9365,8.5,1.78,187.9,-999.0,'1111122,1111122,1111122' 
DISL,ioos:station:DISL:MHPA:1,2017-06-01T22:30:00Z,30.6671,-87.9365,8.5,1.8,189.9,-999.0,'1111122,1111122,1111122' 
DISL,ioos:station:DISL:MHPA:1,2017-06-01T23:00:00Z,30.6671,-87.9365,8.5,1.52,207.4,-999.0,'1111122,1111122,1111122' 
DISL,ioos:station:DISL:MHPA:1,2017-06-01T23:30:00Z,30.6671,-87.9365,8.5,1.5,229.0,-999.0,'1111122,1111122,1111122' 
DISL,ioos:station:DISL:MHPA:1,2017-06-02T00:00:00Z,30.6671,-87.9365,8.5,3.77,188.4,-999.0,'1111122,1111122,1111122' 
DISL,ioos:station:DISL:MHPA:1,2017-06-02T00:30:00Z,30.6671,-87.9365,8.5,3.69,185.4,-999.0,'1111122,1111122,1111122' 
DISL,ioos:station:DISL:MHPA:1,2017-06-02T01:00:00Z,30.6671,-87.9365,8.5,4.74,166.4,-999.0,'1111122,1111122,1111122' 
DISL,ioos:station:DISL:MHPA:1,2017-06-02T01:30:00Z,30.6671,-87.9365,8.5,2.37,124.6,-999.0,'1111122,1111122,1111122' 
DISL,ioos:station:DISL:MHPA:1,2017-06-02T02:00:00Z,30.6671,-87.9365,8.5,2.1,127.4,-999.0,'1111122,1111122,1111122' 
DISL,ioos:station:DISL:MHPA:1,2017-06-02T02:30:00Z,30.6671,-87.9365,8.5,0.86,64.18,-999.0,'1111122,1111122,1111122' 
DISL,ioos:station:DISL:MHPA:1,2017-06-02T03:00:00Z,30.6671,-87.9365,8.5,1.38,95.7,-999.0,'1111122,1111122,1111122' 
DISL,ioos:station:DISL:MHPA:1,2017-06-02T03:30:00Z,30.6671,-87.9365,8.5,1.43,66.57,-999.0,'1111122,1111122,1111122' 
DISL,ioos:station:DISL:MHPA:1,2017-06-02T04:00:00Z,30.6671,-87.9365,8.5,1.67,56.75,-999.0,'1111122,1111122,1111122' 
DISL,ioos:station:DISL:MHPA:1,2017-06-02T04:30:00Z,30.6671,-87.9365,8.5,1.28,51.04,-999.0,'1111122,1111122,1111122' 
DISL,ioos:station:DISL:MHPA:1,2017-06-02T05:00:00Z,30.6671,-87.9365,8.5,0.89,91.0,-999.0,'1111122,1111122,1111122' 
DISL,ioos:station:DISL:MHPA:1,2017-06-02T05:30:00Z,30.6671,-87.9365,8.5,0.48,123.6,-999.0,'1111122,1111122,1111122' 
DISL,ioos:station:DISL:MHPA:1,2017-06-02T06:00:00Z,30.6671,-87.9365,8.5,1.43,113.5,-999.0,'1111122,1111122,1111122' 
DISL,ioos:station:DISL:MHPA:1,2017-06-02T06:30:00Z,30.6671,-87.9365,8.5,0.77,20.62,-999.0,'1111122,1111122,1111122' 
DISL,ioos:station:DISL:MHPA:1,2017-06-02T07:00:00Z,30.6671,-87.9365,8.5,0.7,23.43,-999.0,'1111122,1111122,1111122' 
DISL,ioos:station:DISL:MHPA:1,2017-06-02T07:30:00Z,30.6671,-87.9365,8.5,0.99,98.9,-999.0,'1111122,1111122,1111122' 
DISL,ioos:station:DISL:MHPA:1,2017-06-02T08:00:00Z,30.6671,-87.9365,8.5,1.46,125.9,-999.0,'1111122,1111122,1111122' 
DISL,ioos:station:DISL:MHPA:1,2017-06-02T08:30:00Z,30.6671,-87.9365,8.5,1.21,120.9,-999.0,'1111122,1111122,1111122' 
DISL,ioos:station:DISL:MHPA:1,2017-06-02T09:00:00Z,30.6671,-87.9365,8.5,0.91,89.0,-999.0,'1111122,1111122,1111122' 
DISL,ioos:station:DISL:MHPA:1,2017-06-02T09:30:00Z,30.6671,-87.9365,8.5,1.37,113.1,-999.0,'1111122,1111122,1111122' 
DISL,ioos:station:DISL:MHPA:1,2017-06-02T10:00:00Z,30.6671,-87.9365,8.5,0.98,88.1,-999.0,'1111122,1111122,1111122' 
DISL,ioos:station:DISL:MHPA:1,2017-06-02T10:30:00Z,30.6671,-87.9365,8.5,0.71,81.0,-999.0,'1111122,1111122,1111122' 
DISL,ioos:station:DISL:MHPA:1,2017-06-02T11:00:00Z,30.6671,-87.9365,8.5,0.37,79.43,-999.0,'1111122,1111122,1111122' 
DISL,ioos:station:DISL:MHPA:1,2017-06-02T11:30:00Z,30.6671,-87.9365,8.5,1.03,81.3,-999.0,'1111122,1111122,1111122' 
DISL,ioos:station:DISL:MHPA:1,2017-06-02T12:00:00Z,30.6671,-87.9365,8.5,2.1,87.1,-999.0,'1111122,1111122,1111122' 
DISL,ioos:station:DISL:MHPA:1,2017-06-02T12:30:00Z,30.6671,-87.9365,8.5,2.73,90.2,-999.0,'1111122,1111122,1111122' 
DISL,ioos:station:DISL:MHPA:1,2017-06-02T13:00:00Z,30.6671,-87.9365,8.5,2.92,114.6,-999.0,'1111122,1111122,1111122' 
DISL,ioos:station:DISL:MHPA:1,2017-06-02T13:30:00Z,30.6671,-87.9365,8.5,2.54,105.2,-999.0,'1111122,1111122,1111122' 
DISL,ioos:station:DISL:MHPA:1,2017-06-02T14:00:00Z,30.6671,-87.9365,8.5,1.66,106.3,-999.0,'1111122,1111122,1111122' 
DISL,ioos:station:DISL:MHPA:1,2017-06-02T14:30:00Z,30.6671,-87.9365,8.5,1.16,145.0,-999.0,'1111122,1111122,1111122' 
DISL,ioos:station:DISL:MHPA:1,2017-06-02T17:00:00Z,30.6671,-87.9365,8.5,5.05,196.0,-999.0,'1111122,1111122,1111122' 
DISL,ioos:station:DISL:MHPA:1,2017-06-02T17:30:00Z,30.6671,-87.9365,8.5,5.65,197.9,-999.0,'1111122,1111122,1111122' 
DISL,ioos:station:DISL:MHPA:1,2017-06-02T18:00:00Z,30.6671,-87.9365,8.5,6.44,192.2,-999.0,'1111122,1111122,1111122' 
DISL,ioos:station:DISL:MHPA:1,2017-06-02T18:30:00Z,30.6671,-87.9365,8.5,6.78,190.7,-999.0,'1111122,1111122,1111122' 
DISL,ioos:station:DISL:MHPA:1,2017-06-02T19:00:00Z,30.6671,-87.9365,8.5,7.04,190.0,-999.0,'1111122,1111122,1111122' 
DISL,ioos:station:DISL:MHPA:1,2017-06-02T19:30:00Z,30.6671,-87.9365,8.5,8.82,180.5,-999.0,'1111122,1111122,1111122' 
DISL,ioos:station:DISL:MHPA:1,2017-06-02T20:00:00Z,30.6671,-87.9365,8.5,7.25,180.3,-999.0,'1111122,1111122,1111122' 
DISL,ioos:station:DISL:MHPA:1,2017-06-02T20:30:00Z,30.6671,-87.9365,8.5,7.1,177.8,-999.0,'1111122,1111122,1111122' 
DISL,ioos:station:DISL:MHPA:1,2017-06-02T21:00:00Z,30.6671,-87.9365,8.5,6.33,183.8,-999.0,'1111122,1111122,1111122' 
DISL,ioos:station:DISL:MHPA:1,2017-06-02T21:30:00Z,30.6671,-87.9365,8.5,7.0,174.5,-999.0,'1111122,1111122,1111122' 
DISL,ioos:station:DISL:MHPA:1,2017-06-02T22:00:00Z,30.6671,-87.9365,8.5,5.62,167.0,-999.0,'1111122,1111122,1111122' 
DISL,ioos:station:DISL:MHPA:1,2017-06-02T22:30:00Z,30.6671,-87.9365,8.5,5.0,175.7,-999.0,'1111122,1111122,1111122' 
DISL,ioos:station:DISL:MHPA:1,2017-06-02T23:00:00Z,30.6671,-87.9365,8.5,6.16,175.7,-999.0,'1111122,1111122,1111122' 
DISL,ioos:station:DISL:MHPA:1,2017-06-02T23:30:00Z,30.6671,-87.9365,8.5,6.56,169.4,-999.0,'1111122,1111122,1111122' 
DISL,ioos:station:DISL:MHPA:1,2017-06-03T00:00:00Z,30.6671,-87.9365,8.5,4.32,151.7,-999.0,'1111122,1111122,1111122' 
DISL,ioos:station:DISL:MHPA:1,2017-06-03T00:30:00Z,30.6671,-87.9365,8.5,2.92,125.1,-999.0,'1111122,1111122,1111122' 
DISL,ioos:station:DISL:MHPA:1,2017-06-03T01:00:00Z,30.6671,-87.9365,8.5,3.01,135.9,-999.0,'1111122,1111122,1111122' 
DISL,ioos:station:DISL:MHPA:1,2017-06-03T01:30:00Z,30.6671,-87.9365,8.5,3.45,133.7,-999.0,'1111122,1111122,1111122' 
DISL,ioos:station:DISL:MHPA:1,2017-06-03T02:00:00Z,30.6671,-87.9365,8.5,3.75,135.6,-999.0,'1111122,1111122,1111122' 
DISL,ioos:station:DISL:MHPA:1,2017-06-03T02:30:00Z,30.6671,-87.9365,8.5,3.42,137.5,-999.0,'1111122,1111122,1111122' 
DISL,ioos:station:DISL:MHPA:1,2017-06-03T03:00:00Z,30.6671,-87.9365,8.5,3.66,141.9,-999.0,'1111122,1111122,1111122' 
DISL,ioos:station:DISL:MHPA:1,2017-06-03T03:30:00Z,30.6671,-87.9365,8.5,2.81,122.5,-999.0,'1111122,1111122,1111122' 
DISL,ioos:station:DISL:MHPA:1,2017-06-03T04:00:00Z,30.6671,-87.9365,8.5,0.62,82.0,-999.0,'1111122,1111122,1111122' 
DISL,ioos:station:DISL:MHPA:1,2017-06-03T04:30:00Z,30.6671,-87.9365,8.5,1.6,105.8,-999.0,'1111122,1111122,1111122' 
DISL,ioos:station:DISL:MHPA:1,2017-06-03T05:00:00Z,30.6671,-87.9365,8.5,2.86,119.1,-999.0,'1111122,1111122,1111122' 
DISL,ioos:station:DISL:MHPA:1,2017-06-03T05:30:00Z,30.6671,-87.9365,8.5,2.83,102.2,-999.0,'1111122,1111122,1111122' 
DISL,ioos:station:DISL:MHPA:1,2017-06-03T06:00:00Z,30.6671,-87.9365,8.5,2.89,117.2,-999.0,'1111122,1111122,1111122' 
DISL,ioos:station:DISL:MHPA:1,2017-06-03T06:30:00Z,30.6671,-87.9365,8.5,3.46,130.4,-999.0,'1111122,1111122,1111122' 
DISL,ioos:station:DISL:MHPA:1,2017-06-03T07:00:00Z,30.6671,-87.9365,8.5,3.9,132.8,-999.0,'1111122,1111122,1111122' 
DISL,ioos:station:DISL:MHPA:1,2017-06-03T07:30:00Z,30.6671,-87.9365,8.5,2.76,130.6,-999.0,'1111122,1111122,1111122' 
DISL,ioos:station:DISL:MHPA:1,2017-06-03T08:00:00Z,30.6671,-87.9365,8.5,2.53,113.7,-999.0,'1111122,1111122,1111122' 
DISL,ioos:station:DISL:MHPA:1,2017-06-03T08:30:00Z,30.6671,-87.9365,8.5,2.01,128.2,-999.0,'1111122,1111122,1111122' 
DISL,ioos:station:DISL:MHPA:1,2017-06-03T09:00:00Z,30.6671,-87.9365,8.5,0.99,133.2,-999.0,'1111122,1111122,1111122' 
DISL,ioos:station:DISL:MHPA:1,2017-06-03T09:30:00Z,30.6671,-87.9365,8.5,1.4,110.8,-999.0,'1111122,1111122,1111122' 
DISL,ioos:station:DISL:MHPA:1,2017-06-03T10:00:00Z,30.6671,-87.9365,8.5,2.24,124.2,-999.0,'1111122,1111122,1111122' 
DISL,ioos:station:DISL:MHPA:1,2017-06-03T10:30:00Z,30.6671,-87.9365,8.5,2.06,112.0,-999.0,'1111122,1111122,1111122' 
DISL,ioos:station:DISL:MHPA:1,2017-06-03T11:00:00Z,30.6671,-87.9365,8.5,2.56,104.4,-999.0,'1111122,1111122,1111122' 
DISL,ioos:station:DISL:MHPA:1,2017-06-03T11:30:00Z,30.6671,-87.9365,8.5,2.24,90.2,-999.0,'1111122,1111122,1111122' 
DISL,ioos:station:DISL:MHPA:1,2017-06-03T12:00:00Z,30.6671,-87.9365,8.5,2.09,102.0,-999.0,'1111122,1111122,1111122' 
DISL,ioos:station:DISL:MHPA:1,2017-06-03T12:30:00Z,30.6671,-87.9365,8.5,1.99,97.9,-999.0,'1111122,1111122,1111122' 
DISL,ioos:station:DISL:MHPA:1,2017-06-03T13:00:00Z,30.6671,-87.9365,8.5,2.59,104.0,-999.0,'1111122,1111122,1111122' 
DISL,ioos:station:DISL:MHPA:1,2017-06-03T13:30:00Z,30.6671,-87.9365,8.5,3.64,122.9,-999.0,'1111122,1111122,1111122' 
DISL,ioos:station:DISL:MHPA:1,2017-06-03T14:00:00Z,30.6671,-87.9365,8.5,5.05,162.5,-999.0,'1111122,1111122,1111122' 
DISL,ioos:station:DISL:MHPA:1,2017-06-03T14:30:00Z,30.6671,-87.9365,8.5,5.43,169.7,-999.0,'1111122,1111122,1111122' 
DISL,ioos:station:DISL:MHPA:1,2017-06-03T15:00:00Z,30.6671,-87.9365,8.5,4.7,181.0,-999.0,'1111122,1111122,1111122' 
DISL,ioos:station:DISL:MHPA:1,2017-06-03T15:30:00Z,30.6671,-87.9365,8.5,5.15,179.0,-999.0,'1111122,1111122,1111122' 
DISL,ioos:station:DISL:MHPA:1,2017-06-03T16:00:00Z,30.6671,-87.9365,8.5,4.85,181.1,-999.0,'1111122,1111122,1111122' 
DISL,ioos:station:DISL:MHPA:1,2017-06-03T16:30:00Z,30.6671,-87.9365,8.5,4.12,182.7,-999.0,'1111122,1111122,1111122' 
DISL,ioos:station:DISL:MHPA:1,2017-06-03T17:00:00Z,30.6671,-87.9365,8.5,5.8,175.2,-999.0,'1111122,1111122,1111122' 
DISL,ioos:station:DISL:MHPA:1,2017-06-03T17:30:00Z,30.6671,-87.9365,8.5,5.74,190.5,-999.0,'1111122,1111122,1111122' 
DISL,ioos:station:DISL:MHPA:1,2017-06-03T18:00:00Z,30.6671,-87.9365,8.5,5.9,193.9,-999.0,'1111122,1111122,1111122' 
DISL,ioos:station:DISL:MHPA:1,2017-06-03T18:30:00Z,30.6671,-87.9365,8.5,5.93,186.2,-999.0,'1111122,1111122,1111122' 
DISL,ioos:station:DISL:MHPA:1,2017-06-03T19:00:00Z,30.6671,-87.9365,8.5,5.04,184.2,-999.0,'1111122,1111122,1111122' 
DISL,ioos:station:DISL:MHPA:1,2017-06-03T19:30:00Z,30.6671,-87.9365,8.5,4.68,178.7,-999.0,'1111122,1111122,1111122' 
DISL,ioos:station:DISL:MHPA:1,2017-06-03T20:00:00Z,30.6671,-87.9365,8.5,2.47,166.4,-999.0,'1111122,1111122,1111122' 
DISL,ioos:station:DISL:MHPA:1,2017-06-03T20:30:00Z,30.6671,-87.9365,8.5,3.9,302.0,-999.0,'1111122,1111122,1111122' 
DISL,ioos:station:DISL:MHPA:1,2017-06-03T21:00:00Z,30.6671,-87.9365,8.5,4.0,315.6,-999.0,'1111122,1111122,1111122' 
DISL,ioos:station:DISL:MHPA:1,2017-06-03T21:30:00Z,30.6671,-87.9365,8.5,2.73,357.5,-999.0,'1111122,1111122,1111122' 
DISL,ioos:station:DISL:MHPA:1,2017-06-03T22:00:00Z,30.6671,-87.9365,8.5,3.03,20.86,-999.0,'1111122,1111122,1111122' 
DISL,ioos:station:DISL:MHPA:1,2017-06-03T22:30:00Z,30.6671,-87.9365,8.5,2.12,25.39,-999.0,'1111122,1111122,1111122' 
DISL,ioos:station:DISL:MHPA:1,2017-06-03T23:00:00Z,30.6671,-87.9365,8.5,1.48,307.4,-999.0,'1111122,1111122,1111122' 
DISL,ioos:station:DISL:MHPA:1,2017-06-03T23:30:00Z,30.6671,-87.9365,8.5,2.64,275.1,-999.0,'1111122,1111122,1111122' 
DISL,ioos:station:DISL:MHPA:1,2017-06-04T00:00:00Z,30.6671,-87.9365,8.5,1.96,312.2,-999.0,'1111122,1111122,1111122' 
DISL,ioos:station:DISL:MHPA:1,2017-06-04T00:30:00Z,30.6671,-87.9365,8.5,1.84,336.4,-999.0,'1111122,1111122,1111122' 
DISL,ioos:station:DISL:MHPA:1,2017-06-04T01:00:00Z,30.6671,-87.9365,8.5,0.42,11.84,-999.0,'1111122,1111122,1111122' 
DISL,ioos:station:DISL:MHPA:1,2017-06-04T01:30:00Z,30.6671,-87.9365,8.5,0.57,91.2,-999.0,'1111122,1111122,1111122' 
DISL,ioos:station:DISL:MHPA:1,2017-06-04T02:00:00Z,30.6671,-87.9365,8.5,2.26,133.3,-999.0,'1111122,1111122,1111122' 
DISL,ioos:station:DISL:MHPA:1,2017-06-04T02:30:00Z,30.6671,-87.9365,8.5,1.41,112.1,-999.0,'1111122,1111122,1111122' 
DISL,ioos:station:DISL:MHPA:1,2017-06-04T03:00:00Z,30.6671,-87.9365,8.5,1.66,116.4,-999.0,'1111122,1111122,1111122' 
DISL,ioos:station:DISL:MHPA:1,2017-06-04T03:30:00Z,30.6671,-87.9365,8.5,2.22,120.0,-999.0,'1111122,1111122,1111122' 
DISL,ioos:station:DISL:MHPA:1,2017-06-04T04:00:00Z,30.6671,-87.9365,8.5,2.8,122.6,-999.0,'1111122,1111122,1111122' 
DISL,ioos:station:DISL:MHPA:1,2017-06-04T04:30:00Z,30.6671,-87.9365,8.5,1.75,140.8,-999.0,'1111122,1111122,1111122' 
DISL,ioos:station:DISL:MHPA:1,2017-06-04T05:00:00Z,30.6671,-87.9365,8.5,3.32,148.3,-999.0,'1111122,1111122,1111122' 
DISL,ioos:station:DISL:MHPA:1,2017-06-04T05:30:00Z,30.6671,-87.9365,8.5,3.09,126.2,-999.0,'1111122,1111122,1111122' 
DISL,ioos:station:DISL:MHPA:1,2017-06-04T06:00:00Z,30.6671,-87.9365,8.5,3.05,131.2,-999.0,'1111122,1111122,1111122' 
DISL,ioos:station:DISL:MHPA:1,2017-06-04T06:30:00Z,30.6671,-87.9365,8.5,2.15,129.5,-999.0,'1111122,1111122,1111122' 
DISL,ioos:station:DISL:MHPA:1,2017-06-04T07:00:00Z,30.6671,-87.9365,8.5,1.98,112.6,-999.0,'1111122,1111122,1111122' 
DISL,ioos:station:DISL:MHPA:1,2017-06-04T07:30:00Z,30.6671,-87.9365,8.5,1.61,102.1,-999.0,'1111122,1111122,1111122' 
DISL,ioos:station:DISL:MHPA:1,2017-06-04T08:00:00Z,30.6671,-87.9365,8.5,1.88,108.4,-999.0,'1111122,1111122,1111122' 
DISL,ioos:station:DISL:MHPA:1,2017-06-04T08:30:00Z,30.6671,-87.9365,8.5,2.41,113.1,-999.0,'1111122,1111122,1111122' 
DISL,ioos:station:DISL:MHPA:1,2017-06-04T09:00:00Z,30.6671,-87.9365,8.5,2.25,104.3,-999.0,'1111122,1111122,1111122' 
DISL,ioos:station:DISL:MHPA:1,2017-06-04T09:30:00Z,30.6671,-87.9365,8.5,2.3,100.2,-999.0,'1111122,1111122,1111122' 
DISL,ioos:station:DISL:MHPA:1,2017-06-04T10:00:00Z,30.6671,-87.9365,8.5,2.44,102.9,-999.0,'1111122,1111122,1111122' 
DISL,ioos:station:DISL:MHPA:1,2017-06-04T10:30:00Z,30.6671,-87.9365,8.5,1.64,81.3,-999.0,'1111122,1111122,1111122' 
DISL,ioos:station:DISL:MHPA:1,2017-06-04T11:00:00Z,30.6671,-87.9365,8.5,1.41,68.88,-999.0,'1111122,1111122,1111122' 
DISL,ioos:station:DISL:MHPA:1,2017-06-04T11:30:00Z,30.6671,-87.9365,8.5,1.5,69.53,-999.0,'1111122,1111122,1111122' 
DISL,ioos:station:DISL:MHPA:1,2017-06-04T12:00:00Z,30.6671,-87.9365,8.5,1.23,55.94,-999.0,'1111122,1111122,1111122' 
DISL,ioos:station:DISL:MHPA:1,2017-06-04T12:30:00Z,30.6671,-87.9365,8.5,1.0,66.69,-999.0,'1111122,1111122,1111122' 
DISL,ioos:station:DISL:MHPA:1,2017-06-04T13:00:00Z,30.6671,-87.9365,8.5,1.37,55.61,-999.0,'1111122,1111122,1111122' 
DISL,ioos:station:DISL:MHPA:1,2017-06-04T13:30:00Z,30.6671,-87.9365,8.5,1.35,74.89,-999.0,'1111122,1111122,1111122' 
DISL,ioos:station:DISL:MHPA:1,2017-06-04T14:00:00Z,30.6671,-87.9365,8.5,2.08,103.9,-999.0,'1111122,1111122,1111122' 
DISL,ioos:station:DISL:MHPA:1,2017-06-04T14:30:00Z,30.6671,-87.9365,8.5,2.36,90.3,-999.0,'1111122,1111122,1111122' 
DISL,ioos:station:DISL:MHPA:1,2017-06-04T15:00:00Z,30.6671,-87.9365,8.5,2.03,103.1,-999.0,'1111122,1111122,1111122' 
DISL,ioos:station:DISL:MHPA:1,2017-06-04T15:30:00Z,30.6671,-87.9365,8.5,2.03,116.2,-999.0,'1111122,1111122,1111122' 
DISL,ioos:station:DISL:MHPA:1,2017-06-04T16:00:00Z,30.6671,-87.9365,8.5,2.05,117.8,-999.0,'1111122,1111122,1111122' 
DISL,ioos:station:DISL:MHPA:1,2017-06-04T16:30:00Z,30.6671,-87.9365,8.5,1.83,115.7,-999.0,'1111122,1111122,1111122' 
DISL,ioos:station:DISL:MHPA:1,2017-06-04T17:00:00Z,30.6671,-87.9365,8.5,2.97,220.4,-999.0,'1111122,1111122,1111122' 
DISL,ioos:station:DISL:MHPA:1,2017-06-04T17:30:00Z,30.6671,-87.9365,8.5,4.46,112.4,-999.0,'1111122,1111122,1111122' 
DISL,ioos:station:DISL:MHPA:1,2017-06-04T18:00:00Z,30.6671,-87.9365,8.5,1.22,158.0,-999.0,'1111122,1111122,1111122' 
DISL,ioos:station:DISL:MHPA:1,2017-06-04T18:30:00Z,30.6671,-87.9365,8.5,4.67,199.1,-999.0,'1111122,1111122,1111122' 
DISL,ioos:station:DISL:MHPA:1,2017-06-04T19:00:00Z,30.6671,-87.9365,8.5,6.84,192.7,-999.0,'1111122,1111122,1111122' 
DISL,ioos:station:DISL:MHPA:1,2017-06-04T19:30:00Z,30.6671,-87.9365,8.5,7.09,187.0,-999.0,'1111122,1111122,1111122' 
DISL,ioos:station:DISL:MHPA:1,2017-06-04T20:00:00Z,30.6671,-87.9365,8.5,7.18,180.7,-999.0,'1111122,1111122,1111122' 
DISL,ioos:station:DISL:MHPA:1,2017-06-04T20:30:00Z,30.6671,-87.9365,8.5,6.38,189.2,-999.0,'1111122,1111122,1111122' 
DISL,ioos:station:DISL:MHPA:1,2017-06-04T21:00:00Z,30.6671,-87.9365,8.5,5.9,182.1,-999.0,'1111122,1111122,1111122' 
DISL,ioos:station:DISL:MHPA:1,2017-06-04T21:30:00Z,30.6671,-87.9365,8.5,5.92,168.0,-999.0,'1111122,1111122,1111122' 
DISL,ioos:station:DISL:MHPA:1,2017-06-04T22:00:00Z,30.6671,-87.9365,8.5,5.92,174.7,-999.0,'1111122,1111122,1111122' 
DISL,ioos:station:DISL:MHPA:1,2017-06-04T22:30:00Z,30.6671,-87.9365,8.5,5.72,173.2,-999.0,'1111122,1111122,1111122' 
DISL,ioos:station:DISL:MHPA:1,2017-06-04T23:00:00Z,30.6671,-87.9365,8.5,5.76,175.9,-999.0,'1111122,1111122,1111122' 
DISL,ioos:station:DISL:MHPA:1,2017-06-04T23:30:00Z,30.6671,-87.9365,8.5,5.37,177.6,-999.0,'1111122,1111122,1111122' 
DISL,ioos:station:DISL:MHPA:1,2017-06-05T00:00:00Z,30.6671,-87.9365,8.5,4.89,181.3,-999.0,'1111122,1111122,1111122' 
DISL,ioos:station:DISL:MHPA:1,2017-06-05T00:30:00Z,30.6671,-87.9365,8.5,4.55,191.0,-999.0,'1111122,1111122,1111122' 
DISL,ioos:station:DISL:MHPA:1,2017-06-05T01:00:00Z,30.6671,-87.9365,8.5,4.38,193.3,-999.0,'1111122,1111122,1111122' 
DISL,ioos:station:DISL:MHPA:1,2017-06-05T01:30:00Z,30.6671,-87.9365,8.5,4.25,180.4,-999.0,'1111122,1111122,1111122' 
DISL,ioos:station:DISL:MHPA:1,2017-06-05T02:00:00Z,30.6671,-87.9365,8.5,4.31,169.9,-999.0,'1111122,1111122,1111122' 
DISL,ioos:station:DISL:MHPA:1,2017-06-05T02:30:00Z,30.6671,-87.9365,8.5,3.25,146.9,-999.0,'1111122,1111122,1111122' 
DISL,ioos:station:DISL:MHPA:1,2017-06-05T03:00:00Z,30.6671,-87.9365,8.5,2.69,139.5,-999.0,'1111122,1111122,1111122' 
DISL,ioos:station:DISL:MHPA:1,2017-06-05T03:30:00Z,30.6671,-87.9365,8.5,3.19,147.2,-999.0,'1111122,1111122,1111122' 
DISL,ioos:station:DISL:MHPA:1,2017-06-05T04:00:00Z,30.6671,-87.9365,8.5,5.11,178.9,-999.0,'1111122,1111122,1111122' 
DISL,ioos:station:DISL:MHPA:1,2017-06-05T04:30:00Z,30.6671,-87.9365,8.5,3.29,149.4,-999.0,'1111122,1111122,1111122' 
DISL,ioos:station:DISL:MHPA:1,2017-06-05T05:00:00Z,30.6671,-87.9365,8.5,3.0,134.3,-999.0,'1111122,1111122,1111122' 
DISL,ioos:station:DISL:MHPA:1,2017-06-05T05:30:00Z,30.6671,-87.9365,8.5,3.25,143.6,-999.0,'1111122,1111122,1111122' 
DISL,ioos:station:DISL:MHPA:1,2017-06-05T06:00:00Z,30.6671,-87.9365,8.5,3.02,129.9,-999.0,'1111122,1111122,1111122' 
DISL,ioos:station:DISL:MHPA:1,2017-06-05T06:30:00Z,30.6671,-87.9365,8.5,4.18,145.6,-999.0,'1111122,1111122,1111122' 
DISL,ioos:station:DISL:MHPA:1,2017-06-05T07:00:00Z,30.6671,-87.9365,8.5,5.49,161.7,-999.0,'1111122,1111122,1111122' 
DISL,ioos:station:DISL:MHPA:1,2017-06-05T07:30:00Z,30.6671,-87.9365,8.5,5.81,173.8,-999.0,'1111122,1111122,1111122' 